Location: Costa Valle Imagna
(45.8000°N, 9.5000°E)
Time: 15:47:54
(UTC+00:00)

Meteor 2-3 Rocket - Pass Details

Date: 17 February 2020
Orbit: 842 x 885 km, 81.3° (Epoch: 07 April)

Event Time Altitude Azimuth Distance (km) Brightness Sun altitude
Rises 04:58:27 0° 342° (NNW) 3,462 6.7 -15.2°
Reaches altitude 10° 05:00:59 10° 336° (NNW) 2,527 5.9 -14.8°
Maximum altitude 05:06:19 41° 268° (W) 1,247 4.1 -13.8°
Drops below altitude 10° 05:11:41 10° 200° (SSW) 2,532 6.0 -12.9°
Sets 05:14:14 0° 193° (SSW) 3,470 6.8 -12.5°
